Weather History for Panama, Panama

Change the Weather History Date:

Sunday, November 17, 2013

  Actual Average Record
Temperature  
Mean Temperature 84 °F -  
Max Temperature 91 °F 84 °F 93 °F (1998)
Min Temperature 78 °F 73 °F 69 °F (2001)
Cooling Degree Days 20    
Growing Degree Days 34 (Base 50)    
Moisture  
Dew Point 78 °F    
Average Humidity 82    
Maximum Humidity 94    
Minimum Humidity 59    
Precipitation  
Precipitation 0.00 in - - ()
Sea Level Pressure  
Sea Level Pressure 29.79 in    
Wind  
Wind Speed 2 mph ()    
Max Wind Speed 7 mph    
Max Gust Speed -    
Visibility 5.1 miles    
Events Rain , Thunderstorm    
Averages and records for this station are not official NWS values.
T = Trace of Precipitation, MM = Missing Value Source: Averaged Metar Reports

Daily Weather History Graph

Daily Weather History Graph

Search for Another Location

Airport:

Trip Planner

Search our weather history database for the weather conditions in past years. The results will help you decide how hot, cold, wet, or windy it might be!

Date:

Astronomy

Nov. 17, 2013 Rise Set
Actual Time 6:12 AM EST 5:54 PM EST
Civil Twilight 5:49 AM EST 6:16 PM EST
Nautical Twilight 5:24 AM EST 6:41 PM EST
Astronomical Twilight 4:58 AM EST 7:07 PM EST
Moon 6:09 PM EST (11/17) 6:07 AM EST (11/17)
Length of Visible Light 12h 26m
Length of Day
11h 42m
Full, 100% of the Moon is Illuminated
Nov 17
Full
Nov 25
Last Quarter
Dec 2
New
Dec 9
First Quarter
Dec 17
Full

Hourly Weather History & Observations

Time (EST) Temp. Heat Index Dew Point Humidity Pressure Visibility Wind Dir Wind Speed Gust Speed Precip Events Conditions
6:00 AM 78.8 °F - 77.0 °F 94% 29.77 in 5.6 mi Variable 1.2 mph - N/A   Partly Cloudy
7:00 AM 78.8 °F - 77.0 °F 94% 29.80 in 5.6 mi Variable 1.2 mph - N/A   Partly Cloudy
8:00 AM 80.6 °F 87.1 °F 77.0 °F 89% 29.83 in 5.6 mi Variable 1.2 mph - N/A   Partly Cloudy
9:00 AM 82.4 °F 90.9 °F 77.0 °F 84% 29.83 in 5.6 mi North 3.5 mph - N/A   Scattered Clouds
10:00 AM 86.0 °F 96.9 °F 77.0 °F 74% 29.83 in 5.6 mi NW 4.6 mph - N/A   Partly Cloudy
11:00 AM 89.6 °F 102.2 °F 77.0 °F 66% 29.83 in 6.2 mi North 6.9 mph - N/A   Scattered Clouds
12:00 PM 91.4 °F 102.5 °F 75.2 °F 59% 29.83 in 6.2 mi NNW 4.6 mph - N/A   Scattered Clouds
12:05 PM 87.8 °F 99.7 °F 77.0 °F 70% 29.80 in 5.0 mi NE 6.9 mph - N/A Rain Light Rain Showers
12:15 PM 84.2 °F 96.1 °F 78.8 °F 84% 29.80 in 0.5 mi ESE 4.6 mph - N/A Rain Heavy Rain Showers
1:00 PM 87.8 °F 102.5 °F 78.8 °F 75% 29.77 in 4.3 mi SW 1.2 mph - N/A   Scattered Clouds
1:38 PM 86.0 °F 101.9 °F 80.6 °F 84% - 1.5 mi ESE 3.5 mph - N/A Rain Rain
2:00 PM 82.4 °F 92.4 °F 78.8 °F 89% 29.77 in 1.5 mi SSE 6.9 mph - N/A Rain , Thunderstorm Light Thunderstorms and Rain
2:20 PM 84.2 °F 96.1 °F 78.8 °F 84% 29.74 in 6.2 mi Variable 1.2 mph - N/A   Scattered Clouds
3:00 PM 84.2 °F 98.3 °F 80.6 °F 89% 29.74 in 6.2 mi Variable 1.2 mph - N/A   Scattered Clouds
4:00 PM 86.0 °F 99.3 °F 78.8 °F 79% 29.74 in 6.2 mi Variable 1.2 mph - N/A   Scattered Clouds
5:00 PM 86.0 °F 96.9 °F 77.0 °F 74% 29.74 in 6.2 mi NNW 3.5 mph - N/A   Scattered Clouds
7:00 PM 82.4 °F 90.9 °F 77.0 °F 84% 29.77 in 6.2 mi NW 3.5 mph - N/A   Mostly Cloudy
8:00 PM 80.6 °F 87.1 °F 77.0 °F 89% 29.80 in 6.2 mi Variable 1.2 mph - N/A   Mostly Cloudy
9:00 PM 80.6 °F 87.1 °F 77.0 °F 89% 29.83 in 6.2 mi Calm Calm - N/A   Mostly Cloudy
10:00 PM 80.6 °F 87.1 °F 77.0 °F 89% 29.83 in 6.2 mi Variable 1.2 mph - N/A   Scattered Clouds